KI5KMR-13 Weather Reports


Display with metric or nautical units.
time (UTC)temp
F
wind
direction
speed
MPH
gust
MPH
rain 1hr
in
rain 24hr
in
rain mn
in
humidity
%
barometer
mb
20210625065517 78 180 3.0 8.0 0.00 0.00 0.00 86 1013.9
20210625064517 78 180 2.0 6.0 0.00 0.00 0.00 85 1013.9
20210625063517 79 158 2.0 5.0 0.00 0.00 0.00 85 1013.8
20210625062517 79 158 3.0 7.0 0.00 0.00 0.00 85 1013.9
20210625061517 79 158 3.0 9.0 0.00 0.00 0.00 84 1014.0
20210625060517 79 180 3.0 10.0 0.00 0.00 0.00 84 1013.8
20210625055517 80 180 3.0 8.0 0.00 0.00 0.00 83 1013.7
20210625054517 80 180 4.0 10.0 0.00 0.00 0.00 83 1013.7
20210625053517 80 158 4.0 8.0 0.00 0.00 0.00 83 1013.8
20210625052517 80 158 4.0 8.0 0.00 0.00 0.00 83 1014.0
20210625051517 81 158 4.0 10.0 0.00 0.00 0.00 82 1014.0
20210625050517 81 158 3.0 6.0 0.00 0.00 0.00 82 1014.2
20210625045517 81 158 2.0 6.0 0.00 0.00 0.00 82 1014.0
20210625044517 81 158 3.0 11.0 0.00 0.00 0.00 81 1014.1
20210625043517 82 180 2.0 7.0 0.00 0.00 0.00 81 1014.0
20210625042517 82 180 3.0 10.0 0.00 0.00 0.00 80 1014.0
20210625041518 82 158 4.0 10.0 0.00 0.00 0.00 80 1013.9
20210625040517 83 158 4.0 9.0 0.00 0.00 0.00 79 1013.9
20210625035517 83 158 4.0 10.0 0.00 0.00 0.00 79 1013.6
20210625034517 83 158 4.0 9.0 0.00 0.00 0.00 79 1013.4
20210625033518 83 158 2.0 9.0 0.00 0.00 0.00 78 1013.2
20210625032518 84 158 3.0 6.0 0.00 0.00 0.00 77 1013.0
20210625031517 84 158 3.0 9.0 0.00 0.00 0.00 76 1012.9
20210625030518 84 180 2.0 6.0 0.00 0.00 0.00 75 1012.7
20210625025518 85 158 3.0 7.0 0.00 0.00 0.00 74 1012.7
20210625024517 85 180 3.0 8.0 0.00 0.00 0.00 73 1012.6
20210625023517 85 180 2.0 6.0 0.00 0.00 0.00 73 1012.6
20210625022517 86 158 1.0 4.0 0.00 0.00 0.00 73 1012.3
20210625021517 86 180 2.0 5.0 0.00 0.00 0.00 72 1012.3
20210625020517 86 180 3.0 8.0 0.00 0.00 0.00 72 1012.3
20210625015518 87 180 3.0 8.0 0.00 0.00 0.00 71 1012.3
20210625014517 87 158 3.0 8.0 0.00 0.00 0.00 70 1012.3
20210625013517 88 180 3.0 9.0 0.00 0.00 0.00 69 1012.2
20210625012517 88 180 2.0 5.0 0.00 0.00 0.00 68 1012.3
20210625011517 88 180 3.0 6.0 0.00 0.00 0.00 67 1012.0
20210625010517 89 180 2.0 5.0 0.00 0.00 0.00 67 1012.1
20210625005517 89 180 2.0 7.0 0.00 0.00 0.00 65 1011.9
20210625004517 90 180 3.0 10.0 0.00 0.00 0.00 65 1011.8
20210625003517 90 180 3.0 8.0 0.00 0.00 0.00 64 1011.8
20210625002517 90 203 2.0 7.0 0.00 0.00 0.00 65 1011.7
20210625001518 90 158 3.0 6.0 0.00 0.00 0.00 63 1011.7
20210625000517 91 203 2.0 6.0 0.00 0.00 0.00 63 1011.8
20210624235517 91 180 3.0 8.0 0.00 0.00 0.00 61 1011.8
20210624234518 92 158 3.0 7.0 0.00 0.00 0.00 60 1011.7
20210624233517 92 158 3.0 6.0 0.00 0.00 0.00 60 1011.6
20210624232517 93 180 2.0 5.0 0.00 0.00 0.00 60 1011.6
20210624231517 93 180 2.0 8.0 0.00 0.00 0.00 59 1011.6
20210624230517 93 158 2.0 6.0 0.00 0.00 0.00 60 1011.8
20210624225517 93 158 2.0 8.0 0.00 0.00 0.00 57 1011.7
20210624224517 93 158 3.0 9.0 0.00 0.00 0.00 57 1011.8
20210624223517 94 158 3.0 8.0 0.00 0.00 0.00 58 1011.9
20210624222517 92 158 2.0 6.0 0.00 0.00 0.00 59 1011.9
20210624221517 94 180 2.0 6.0 0.00 0.00 0.00 57 1012.1
20210624220517 93 180 2.0 7.0 0.00 0.00 0.00 58 1012.0
20210624215517 93 180 3.0 7.0 0.00 0.00 0.00 57 1012.1
20210624214517 94 180 3.0 8.0 0.00 0.00 0.00 56 1012.3
20210624213518 94 158 2.0 8.0 0.00 0.00 0.00 57 1012.5
20210624212517 94 158 2.0 8.0 0.00 0.00 0.00 57 1012.6
20210624211517 93 180 2.0 7.0 0.00 0.00 0.00 56 1012.8
20210624210517 94 158 3.0 7.0 0.00 0.00 0.00 55 1012.8
20210624205517 95 158 3.0 7.0 0.00 0.00 0.00 53 1012.9
20210624204517 94 293 2.0 7.0 0.00 0.00 0.00 55 1012.9
20210624203516 94 158 3.0 10.0 0.00 0.00 0.00 55 1013.0
20210624202517 94 180 2.0 9.0 0.00 0.00 0.00 56 1013.0
20210624201517 94 158 3.0 8.0 0.00 0.00 0.00 57 1013.3
20210624200517 94 158 2.0 6.0 0.00 0.00 0.00 57 1013.3
20210624195516 94 180 2.0 6.0 0.00 0.00 0.00 57 1013.5
20210624194517 93 158 3.0 9.0 0.00 0.00 0.00 57 1013.6
20210624193516 93 180 3.0 7.0 0.00 0.00 0.00 54 1013.8
20210624192516 94 180 3.0 8.0 0.00 0.00 0.00 57 1013.9
20210624191517 93 158 2.0 7.0 0.00 0.00 0.00 57 1014.0
20210624190517 92 203 3.0 7.0 0.00 0.00 0.00 59 1014.4
20210624185517 92 180 3.0 7.0 0.00 0.00 0.00 58 1014.5
20210624184516 92 158 3.0 8.0 0.00 0.00 0.00 59 1014.6
20210624183517 90 293 2.0 7.0 0.00 0.00 0.00 62 1014.8
20210624182517 91 315 1.0 4.0 0.00 0.00 0.00 64 1014.9
20210624181517 90 293 1.0 6.0 0.00 0.00 0.00 64 1014.9
20210624180516 90 158 3.0 6.0 0.00 0.00 0.00 64 1015.1
20210624175516 90 158 3.0 8.0 0.00 0.00 0.00 64 1015.1
20210624174517 89 158 2.0 6.0 0.00 0.00 0.00 65 1015.4
20210624173517 90 338 3.0 11.0 0.00 0.00 0.00 64 1015.3
20210624172516 89 158 3.0 6.0 0.00 0.00 0.00 67 1015.4
20210624171516 89 315 3.0 15.0 0.00 0.00 0.00 66 1015.4
20210624170516 89 180 3.0 8.0 0.00 0.00 0.00 66 1015.3
20210624165516 88 180 3.0 7.0 0.00 0.00 0.00 68 1015.5
20210624164516 87 158 2.0 4.0 0.00 0.00 0.00 71 1015.4
20210624163516 86 293 2.0 6.0 0.00 0.00 0.00 72 1015.5
20210624162516 87 315 2.0 5.0 0.00 0.00 0.00 70 1015.6
20210624161516 87 180 3.0 8.0 0.00 0.00 0.00 70 1015.6
20210624160516 85 158 2.0 5.0 0.00 0.00 0.00 74 1015.7
20210624155517 84 135 2.0 4.0 0.00 0.00 0.00 76 1015.6
20210624154517 83 135 1.0 4.0 0.00 0.00 0.00 78 1015.7
20210624153520 82 315 1.0 7.0 0.00 0.00 0.00 79 1015.7
20210624152516 82 158 1.0 4.0 0.00 0.00 0.00 79 1015.7
20210624151516 82 315 1.0 5.0 0.00 0.00 0.00 81 1015.8
20210624150516 82 135 2.0 6.0 0.00 0.00 0.00 81 1015.7
20210624145517 81 293 1.0 5.0 0.00 0.00 0.00 81 1015.8
20210624144516 81 315 1.0 10.0 0.00 0.00 0.00 82 1015.7
20210624143516 81 315 2.0 4.0 0.00 0.00 0.00 82 1015.8
20210624142516 81 158 2.0 7.0 0.00 0.00 0.00 83 1015.7
20210624141516 80 180 3.0 10.0 0.00 0.00 0.00 84 1015.7
20210624140516 79 180 2.0 5.0 0.00 0.00 0.00 85 1015.7
20210624135516 79 180 2.0 5.0 0.00 0.00 0.00 86 1015.6
20210624134516 78 180 2.0 7.0 0.00 0.00 0.00 87 1015.5
20210624133516 78 180 1.0 3.0 0.00 0.00 0.00 88 1015.7
20210624132516 78 180 2.0 7.0 0.00 0.00 0.00 88 1015.7
20210624131518 78 180 2.0 7.0 0.00 0.00 0.00 88 1015.7
20210624130516 77 0.0 2.0 0.00 0.00 0.00 89 1015.6
20210624125518 77 0.0 3.0 0.00 0.00 0.00 89 1015.5
20210624124518 77 158 1.0 5.0 0.00 0.00 0.00 89 1015.4
20210624123518 77 180 1.0 4.0 0.00 0.00 0.00 89 1015.3
20210624122518 77 180 1.0 5.0 0.00 0.00 0.00 88 1015.4
20210624121518 77 158 1.0 5.0 0.00 0.00 0.00 89 1015.5
20210624120518 77 158 1.0 3.0 0.00 0.00 0.00 88 1015.4
20210624115518 77 158 2.0 7.0 0.00 0.00 0.00 89 1015.3
20210624114518 76 158 1.0 2.0 0.00 0.00 0.00 90 1015.1
20210624113518 76 0.0 1.0 0.00 0.00 0.00 90 1015.0
20210624112518 76 0.0 2.0 0.00 0.00 0.00 90 1015.1
20210624111518 76 0.0 1.0 0.00 0.00 0.00 90 1015.2
20210624110518 76 0.0 3.0 0.00 0.00 0.00 90 1015.0
20210624105518 76 0.0 1.0 0.00 0.00 0.00 90 1015.0
20210624104517 76 0.0 1.0 0.00 0.00 0.00 89 1015.0
20210624103518 76 0.0 2.0 0.00 0.00 0.00 89 1015.1
20210624102518 76 0.0 3.0 0.00 0.00 0.00 90 1015.2
20210624101518 76 0.0 2.0 0.00 0.00 0.00 89 1015.2
20210624100518 76 158 1.0 3.0 0.00 0.00 0.00 89 1015.3